When you browse on this site, cookies collect data to enhance your experience and personalize the content and advertising you see.
Visit our Privacy Policy to learn more. By continuing to use the site, you agree to this use of cookies and data.
  • în România
  • Lista ţărilor
  • Pe 7 zile
  • Temperatura apei
  • Meteo pe hartă
  • Widget-uri
  • user-avatar
    Intrare

    Meteo pe oră la Carryduff

    Astăzi, 23 Februarie, Duminică

    Timp Temperatura Precipitaţii Vânt Presiune Umiditate
    00:00 +8°C° 0 mm 7 m/s 762 mmHg 94%
    01:00 +8°C° 0.9 mm 9 m/s 760 mmHg 94%
    02:00 +9°C° 0.9 mm 12 m/s 758 mmHg 94%
    03:00 +10°C° 0.9 mm 14 m/s 757 mmHg 94%
    04:00 +10°C° 0.3 mm 15 m/s 757 mmHg 93%
    05:00 +10°C° 0.3 mm 15 m/s 757 mmHg 92%
    06:00 +10°C° 0 mm 14 m/s 756 mmHg 89%
    07:00 +10°C° 0.4 mm 14 m/s 756 mmHg 89%
    08:00 +10°C° 0.4 mm 14 m/s 757 mmHg 90%
    09:00 +10°C° 0.4 mm 14 m/s 757 mmHg 90%
    10:00 +9°C° 0.1 mm 12 m/s 759 mmHg 86%
    11:00 +9°C° 0.1 mm 11 m/s 760 mmHg 82%
    12:00 +10°C° 0 mm 8 m/s 761 mmHg 76%
    13:00 +10°C° 0 mm 7 m/s 762 mmHg 76%
    14:00 +9°C° 0 mm 7 m/s 762 mmHg 76%
    15:00 +8°C° 0 mm 6 m/s 763 mmHg 76%
    16:00 +8°C° 0 mm 5 m/s 763 mmHg 78%
    17:00 +7°C° 0 mm 4 m/s 764 mmHg 80%
    18:00 +7°C° 0 mm 2 m/s 765 mmHg 83%
    19:00 +7°C° 0 mm 2 m/s 765 mmHg 81%
    20:00 +7°C° 0 mm 1 m/s 765 mmHg 80%
    21:00 +7°C° 0 mm 1 m/s 765 mmHg 79%
    22:00 +6°C° 0.2 mm 2 m/s 764 mmHg 82%
    23:00 +5°C° 0.2 mm 3 m/s 764 mmHg 85%

    Mâine, 24 Februarie, Luni

    Timp Temperatura Precipitaţii Vânt Presiune Umiditate
    00:00 +5°C° 0.2 mm 4 m/s 763 mmHg 88%
    01:00 +6°C° 0.5 mm 4 m/s 762 mmHg 91%
    02:00 +7°C° 0.5 mm 5 m/s 761 mmHg 94%
    03:00 +8°C° 0.5 mm 6 m/s 759 mmHg 97%
    04:00 +8°C° 0 mm 7 m/s 758 mmHg 95%
    05:00 +8°C° 0 mm 9 m/s 757 mmHg 93%
    06:00 +8°C° 0 mm 10 m/s 756 mmHg 91%
    07:00 +8°C° 0.8 mm 11 m/s 755 mmHg 92%
    08:00 +8°C° 0.8 mm 12 m/s 754 mmHg 92%
    09:00 +8°C° 0.8 mm 13 m/s 754 mmHg 93%
    10:00 +8°C° 1.6 mm 13 m/s 753 mmHg 93%
    11:00 +9°C° 1.6 mm 13 m/s 753 mmHg 93%
    12:00 +9°C° 1.6 mm 13 m/s 752 mmHg 92%
    13:00 +8°C° 0.1 mm 13 m/s 752 mmHg 90%
    14:00 +8°C° 0.1 mm 13 m/s 752 mmHg 88%
    15:00 +8°C° 0.1 mm 12 m/s 752 mmHg 86%
    16:00 +7°C° 0 mm 12 m/s 752 mmHg 84%
    17:00 +6°C° 0 mm 11 m/s 753 mmHg 82%
    18:00 +5°C° 0 mm 10 m/s 753 mmHg 81%
    19:00 +5°C° 0 mm 10 m/s 753 mmHg 80%
    20:00 +3°C° 0 mm 9 m/s 753 mmHg 79%
    21:00 +2°C° 0 mm 9 m/s 754 mmHg 78%
    22:00 +2°C° 0 mm 8 m/s 754 mmHg 78%
    23:00 +2°C° 0 mm 8 m/s 754 mmHg 78%

    Poimâine, 25 Februarie, Marţi

    Timp Temperatura Precipitaţii Vânt Presiune Umiditate
    00:00 +2°C° 0 mm 7 m/s 754 mmHg 78%
    01:00 +2°C° 0 mm 7 m/s 753 mmHg 81%
    02:00 +1°C° 0 mm 8 m/s 753 mmHg 83%
    03:00 +1°C° 0 mm 8 m/s 752 mmHg 85%
    04:00 +1°C° 0.1 mm 8 m/s 752 mmHg 84%
    05:00 +1°C° 0.1 mm 8 m/s 752 mmHg 83%
    06:00 +2°C° 0.1 mm 7 m/s 752 mmHg 81%
    07:00 +2°C° 0.1 mm 8 m/s 751 mmHg 80%
    08:00 +2°C° 0.1 mm 8 m/s 751 mmHg 79%
    09:00 +2°C° 0.1 mm 8 m/s 751 mmHg 77%
    10:00 +3°C° 0.1 mm 9 m/s 751 mmHg 74%
    11:00 +3°C° 0.1 mm 9 m/s 750 mmHg 70%
    12:00 +5°C° 0.1 mm 10 m/s 750 mmHg 67%
    13:00 +3°C° 0.3 mm 9 m/s 749 mmHg 73%
    14:00 +3°C° 0.3 mm 9 m/s 748 mmHg 80%
    15:00 +2°C° 0.3 mm 9 m/s 747 mmHg 86%
    16:00 +2°C° 0.6 mm 9 m/s 747 mmHg 83%
    17:00 +1°C° 0.6 mm 10 m/s 747 mmHg 80%
    18:00 0°C° 0.6 mm 10 m/s 746 mmHg 78%
    19:00 0°C° 0.1 mm 10 m/s 747 mmHg 77%
    20:00 -2°C° 0.1 mm 10 m/s 747 mmHg 77%
    21:00 -2°C° 0.1 mm 10 m/s 747 mmHg 77%
    22:00 -2°C° 0.2 mm 10 m/s 747 mmHg 78%
    23:00 -3°C° 0.2 mm 11 m/s 748 mmHg 80%

    26 Februarie, Miercuri

    Timp Temperatura Precipitaţii Vânt Presiune Umiditate
    00:00 -3°C° 0.2 mm 11 m/s 748 mmHg 82%
    01:00 -3°C° 0.4 mm 12 m/s 748 mmHg 82%
    02:00 -2°C° 0.4 mm 12 m/s 748 mmHg 83%
    03:00 -1°C° 0.4 mm 13 m/s 749 mmHg 84%
    04:00 -1°C° 0 mm 13 m/s 749 mmHg 82%
    05:00 -1°C° 0 mm 12 m/s 750 mmHg 81%
    06:00 -1°C° 0 mm 12 m/s 751 mmHg 79%
    07:00 -1°C° 0 mm 12 m/s 751 mmHg 76%
    08:00 -1°C° 0 mm 12 m/s 752 mmHg 73%
    09:00 -1°C° 0 mm 12 m/s 753 mmHg 69%
    10:00 +1°C° 0 mm 11 m/s 754 mmHg 68%
    11:00 +2°C° 0 mm 11 m/s 755 mmHg 66%
    12:00 +2°C° 0 mm 10 m/s 756 mmHg 64%
    13:00 +2°C° 0 mm 10 m/s 756 mmHg 65%
    14:00 +2°C° 0 mm 9 m/s 756 mmHg 65%
    15:00 +2°C° 0 mm 8 m/s 756 mmHg 65%
    16:00 +3°C° 0.1 mm 7 m/s 756 mmHg 71%
    17:00 +2°C° 0.1 mm 6 m/s 756 mmHg 76%
    18:00 +1°C° 0.1 mm 5 m/s 756 mmHg 82%
    19:00 +1°C° 0.1 mm 4 m/s 756 mmHg 83%
    20:00 +1°C° 0.1 mm 4 m/s 755 mmHg 83%
    21:00 +2°C° 0.1 mm 3 m/s 755 mmHg 84%
    22:00 +1°C° 0 mm 4 m/s 755 mmHg 85%
    23:00 +1°C° 0 mm 4 m/s 754 mmHg 85%

    27 Februarie, Joi

    Timp Temperatura Precipitaţii Vânt Presiune Umiditate
    00:00 +1°C° 0 mm 4 m/s 754 mmHg 85%
    01:00 +1°C° 0.4 mm 4 m/s 752 mmHg 89%
    02:00 +1°C° 0.4 mm 4 m/s 751 mmHg 93%
    03:00 +1°C° 0.4 mm 5 m/s 749 mmHg 96%
    04:00 +1°C° 3.3 mm 5 m/s 748 mmHg 97%
    05:00 +1°C° 3.3 mm 6 m/s 746 mmHg 97%
    06:00 0°C° 3.3 mm 7 m/s 744 mmHg 98%
    07:00 +1°C° 0.9 mm 6 m/s 744 mmHg 97%
    08:00 +2°C° 0.9 mm 6 m/s 743 mmHg 96%
    09:00 +2°C° 0.9 mm 6 m/s 743 mmHg 96%
    10:00 +2°C° 0 mm 5 m/s 743 mmHg 95%
    11:00 +4°C° 0 mm 4 m/s 744 mmHg 94%
    12:00 +4°C° 0 mm 3 m/s 744 mmHg 92%
    13:00 +4°C° 0 mm 3 m/s 745 mmHg 92%
    14:00 +4°C° 0 mm 3 m/s 746 mmHg 92%
    15:00 +5°C° 0 mm 2 m/s 746 mmHg 92%
    16:00 +5°C° 0 mm 2 m/s 747 mmHg 91%
    17:00 +6°C° 0 mm 1 m/s 747 mmHg 90%
    18:00 +5°C° 0 mm 1 m/s 747 mmHg 90%
    19:00 +5°C° 0 mm 1 m/s 748 mmHg 90%
    20:00 +5°C° 0 mm 1 m/s 748 mmHg 90%
    21:00 +4°C° 0 mm 1 m/s 749 mmHg 90%
    22:00 +5°C° 0 mm 1 m/s 749 mmHg 91%
    23:00 +4°C° 0 mm 2 m/s 749 mmHg 92%

    28 Februarie, Vineri

    Timp Temperatura Precipitaţii Vânt Presiune Umiditate
    00:00 +4°C° 0 mm 2 m/s 749 mmHg 93%
    01:00 +4°C° 0.1 mm 3 m/s 748 mmHg 94%
    02:00 +4°C° 0.1 mm 4 m/s 748 mmHg 94%
    03:00 +4°C° 0.1 mm 4 m/s 748 mmHg 94%
    04:00 +3°C° 0.1 mm 5 m/s 748 mmHg 92%
    05:00 +2°C° 0.1 mm 5 m/s 749 mmHg 89%
    06:00 +2°C° 0.1 mm 5 m/s 749 mmHg 87%
    07:00 +2°C° 0 mm 5 m/s 749 mmHg 85%
    08:00 +3°C° 0 mm 4 m/s 749 mmHg 84%
    09:00 +4°C° 0 mm 4 m/s 749 mmHg 82%
    10:00 +5°C° 0 mm 4 m/s 749 mmHg 79%
    11:00 +5°C° 0 mm 4 m/s 749 mmHg 76%
    12:00 +6°C° 0 mm 5 m/s 749 mmHg 73%
    13:00 +6°C° 0 mm 4 m/s 748 mmHg 73%
    14:00 +6°C° 0 mm 4 m/s 747 mmHg 73%
    15:00 +7°C° 0 mm 3 m/s 746 mmHg 73%
    16:00 +5°C° 0 mm 3 m/s 745 mmHg 78%
    17:00 +4°C° 0 mm 3 m/s 744 mmHg 83%
    18:00 +3°C° 0 mm 4 m/s 743 mmHg 88%
    19:00 +3°C° 0.2 mm 4 m/s 742 mmHg 91%
    20:00 +3°C° 0.2 mm 4 m/s 741 mmHg 93%
    21:00 +2°C° 0.2 mm 5 m/s 739 mmHg 95%
    22:00 +2°C° 2.3 mm 6 m/s 739 mmHg 95%
    23:00 0°C° 2.3 mm 8 m/s 738 mmHg 94%
    Arată mai mult